Date,TemperatureHighF,TemperatureAvgF,TemperatureLowF,DewpointHighF,DewpointAvgF,DewpointLowF,HumidityHigh,HumidityAvg,HumidityLow,PressureMaxIn,PressureMinIn,WindSpeedMaxMPH,WindSpeedAvgMPH,GustSpeedMaxMPH,PrecipitationSumIn
2013-10-1,82,73,65,76,68,62,100,87,60,29.68,29.55,26,10,44,0.22
2013-10-2,77,68,61,65,61,58,91,80,63,29.95,29.62,24,10,25,0.00
2013-10-3,63,59,56,58,54,50,97,85,71,30.25,29.94,21,9,24,0.11
2013-10-4,59,56,53,52,48,46,86,77,69,30.34,30.24,21,10,23,0.00
2013-10-5,65,56,51,50,48,45,87,75,57,30.34,30.26,18,8,20,0.00
2013-10-6,68,57,50,54,50,46,89,76,58,30.32,30.23,17,7,19,0.00
2013-10-7,74,60,50,56,51,47,90,73,45,30.32,30.27,21,6,21,0.00
2013-10-8,78,64,55,61,55,50,88,74,48,30.32,30.25,18,4,19,0.00
2013-10-9,78,64,52,62,57,51,96,78,43,30.27,30.16,13,3,17,0.00
2013-10-10,70,65,59,68,63,58,100,94,82,30.16,30.05,24,6,32,0.00
2013-10-11,86,72,63,71,65,61,100,82,50,30.20,30.10,16,5,17,0.00
2013-10-12,87,73,63,76,69,63,100,89,66,30.22,30.16,12,3,14,0.00
2013-10-13,84,71,63,72,66,62,100,85,53,30.19,30.13,17,5,22,0.00
2013-10-14,85,70,60,66,62,59,99,79,44,30.17,30.10,18,5,23,0.00
2013-10-15,87,71,61,71,65,59,100,82,55,30.16,29.98,14,4,16,0.00
2013-10-16,72,69,63,69,66,62,100,89,71,29.98,29.59,26,8,34,0.17
2013-10-17,71,65,58,69,57,48,100,77,51,29.75,29.52,27,11,30,0.02
2013-10-18,81,67,61,61,55,51,89,67,45,30.04,29.75,28,8,32,0.00
2013-10-19,78,67,58,59,53,48,91,62,38,30.35,30.04,21,8,27,0.00
2013-10-20,72,63,56,61,53,50,88,70,49,30.41,30.34,19,6,19,0.00
2013-10-21,77,63,50,61,54,47,91,73,46,30.34,30.20,12,2,12,0.00
2013-10-22,80,65,54,68,60,54,100,84,50,30.21,30.12,13,3,13,0.00
2013-10-23,83,69,56,63,58,53,99,71,49,30.23,30.14,24,6,24,0.00
2013-10-24,76,69,60,59,55,49,77,60,51,30.23,30.17,39,14,39,0.00
2013-10-25,78,65,56,61,55,48,92,70,45,30.19,30.13,21,8,21,0.00
2013-10-26,79,62,50,60,52,45,89,71,39,30.19,30.15,17,4,21,0.00
2013-10-27,79,63,52,64,53,38,100,71,39,30.17,30.10,12,4,14,0.00
2013-10-28,78,65,53,69,59,53,100,84,54,30.13,30.06,11,3,11,0.00
2013-10-29,82,66,54,67,60,54,100,81,43,30.08,30.00,14,4,14,0.00
2013-10-30,82,66,55,68,60,55,100,84,55,30.09,30.02,14,3,15,0.00
2013-10-31,82,70,59,62,56,51,81,61,50,30.17,30.07,24,8,27,0.00